{"data":{"norad_id":63013,"intl_designator":"2025-032J","name":"STARLINK-11577 [DTC]","alt_names":[],"object_type":"PAYLOAD","status":"ACTIVE","operator":null,"country":"US","launch_date":"2025-02-15","launch_site_code":"AFETR","launch_vehicle":null,"mission":null,"orbit_class":"UNKNOWN","rcs_meters":null,"size_class":null,"mass_kg":null,"dimensions":null,"purposes":["comms"],"wikipedia_slug":null,"has_3d_model":false,"image_url":null,"decayed_at":null,"tle_current":{"epoch":"2026-05-24T23:52:16.319712Z","epoch_age_seconds":85683,"freshness":"FRESH","line1":"1 63013U 25032J   26144.99463333  .00144647  00000+0  11100-2 0  9992","line2":"2 63013  43.0005  95.4812 0001950 271.3522  88.7122 15.70867358 74215","mean_motion":15.70867358,"eccentricity":0.000195,"inclination_deg":43.0005,"raan_deg":95.4812,"arg_perigee_deg":271.3522,"mean_anomaly_deg":88.7122,"bstar":0.00111,"rev_number":7421,"period_min":91.669101956093,"perigee_km":355.10363041494,"apogee_km":357.73010642362,"semimajor_km":6734.5538684193,"source":"CELESTRAK","updated_at":"2026-05-25T13:38:19.836653Z"}}}